ORBCOMM FM116

Last updated on Wed Aug 19 2026 00:03:10 GMT+0000 (Coordinated Universal Time)

1 41189U 15081L 26230.62283691 .00000368 00000+0 11398-3 0 9999 2 41189 47.0036 335.3984 0001732 319.6512 40.4245 14.58869717568059
UTC large
Height (km)
Speed (km/s)
/
Latitude / Longitude
Inclination (degrees)
Orbital Period (minutes)
Azimuth
Elevation
Range (km)
Doppler Factor

Next 0 passes for location: London (51.5072 / 0.1276)

No passes found over London.
ORBCOMM FM116